Time,TemperatureF,DewpointF,PressureIn,WindDirection,WindDirectionDegrees,WindSpeedMPH,WindSpeedGustMPH,Humidity,HourlyPrecipIn,Conditions,Clouds,dailyrainin,SoftwareType,DateUTC
2013-09-28 00:05:00,77.4,72.9,29.81,SE,127,4.0,4.0,86,0.00,,,0.00,Wunderground v.1.15,2013-09-28 05:05:00,
2013-09-28 00:10:00,77.4,72.9,29.81,SE,126,4.0,4.0,86,0.00,,,0.00,Wunderground v.1.15,2013-09-28 05:10:00,
2013-09-28 00:15:00,77.4,73.2,29.81,SE,141,2.0,4.0,87,0.00,,,0.00,Wunderground v.1.15,2013-09-28 05:15:00,
2013-09-28 00:20:00,77.2,73.0,29.81,SSE,147,1.0,7.0,87,0.00,,,0.00,Wunderground v.1.15,2013-09-28 05:20:00,
2013-09-28 00:25:00,77.2,73.0,29.81,ESE,113,2.0,7.0,87,0.00,,,0.00,Wunderground v.1.15,2013-09-28 05:25:00,
2013-09-28 00:35:00,77.2,73.4,29.81,SE,127,2.0,2.0,88,0.00,,,0.00,Wunderground v.1.15,2013-09-28 05:35:00,
2013-09-28 00:40:00,77.2,73.4,29.81,SSE,148,1.0,1.0,88,0.00,,,0.00,Wunderground v.1.15,2013-09-28 05:40:00,
2013-09-28 00:50:00,77.2,73.0,29.81,SE,141,2.0,3.0,87,0.00,,,0.00,Wunderground v.1.15,2013-09-28 05:50:00,
2013-09-28 00:55:00,77.2,73.0,29.82,SE,140,3.0,6.0,87,0.00,,,0.00,Wunderground v.1.15,2013-09-28 05:55:00,
2013-09-28 01:05:00,77.2,73.0,29.81,SE,138,3.0,5.0,87,0.00,,,0.00,Wunderground v.1.15,2013-09-28 06:05:00,
2013-09-28 01:10:00,77.2,73.0,29.81,SE,140,3.0,3.0,87,0.00,,,0.00,Wunderground v.1.15,2013-09-28 06:10:00,
2013-09-28 01:20:00,77.2,72.7,29.81,SSE,161,4.0,7.0,86,0.00,,,0.00,Wunderground v.1.15,2013-09-28 06:20:00,
2013-09-28 01:25:00,77.2,73.0,29.81,ESE,120,3.0,7.0,87,0.00,,,0.00,Wunderground v.1.15,2013-09-28 06:25:00,
2013-09-28 01:35:00,77.2,73.4,29.81,SE,145,2.0,5.0,88,0.00,,,0.00,Wunderground v.1.15,2013-09-28 06:35:00,
2013-09-28 01:40:00,77.0,73.5,29.81,South,174,2.0,2.0,89,0.00,,,0.00,Wunderground v.1.15,2013-09-28 06:40:00,
2013-09-28 01:50:00,76.7,73.5,29.81,SSE,162,3.0,5.0,90,0.00,,,0.00,Wunderground v.1.15,2013-09-28 06:50:00,
2013-09-28 01:55:00,76.7,73.5,29.81,SSE,151,3.0,5.0,90,0.00,,,0.00,Wunderground v.1.15,2013-09-28 06:55:00,
2013-09-28 02:05:00,76.7,73.5,29.81,SSE,150,3.0,3.0,90,0.00,,,0.00,Wunderground v.1.15,2013-09-28 07:05:00,
2013-09-28 02:10:00,76.5,73.3,29.81,SSE,148,2.0,9.0,90,0.00,,,0.00,Wunderground v.1.15,2013-09-28 07:10:00,
2013-09-28 02:20:00,76.7,73.5,29.81,SSE,152,2.0,2.0,90,0.00,,,0.00,Wunderground v.1.15,2013-09-28 07:20:00,
2013-09-28 02:25:00,76.7,73.2,29.81,SSE,151,1.0,6.0,89,0.00,,,0.00,Wunderground v.1.15,2013-09-28 07:25:00,
2013-09-28 02:35:00,76.5,73.0,29.81,SE,144,3.0,4.0,89,0.00,,,0.00,Wunderground v.1.15,2013-09-28 07:35:00,
2013-09-28 02:40:00,76.5,73.3,29.81,SE,144,2.0,2.0,90,0.00,,,0.00,Wunderground v.1.15,2013-09-28 07:40:00,
2013-09-28 02:50:00,76.5,73.3,29.81,SSE,161,0.0,5.0,90,0.00,,,0.00,Wunderground v.1.15,2013-09-28 07:50:00,
2013-09-28 02:55:00,76.5,73.3,29.80,SSE,161,1.0,5.0,90,0.00,,,0.00,Wunderground v.1.15,2013-09-28 07:55:00,
2013-09-28 03:05:00,76.5,73.0,29.81,SSE,160,4.0,6.0,89,0.00,,,0.00,Wunderground v.1.15,2013-09-28 08:05:00,
2013-09-28 03:10:00,76.5,73.0,29.81,SE,143,3.0,3.0,89,0.00,,,0.00,Wunderground v.1.15,2013-09-28 08:10:00,
2013-09-28 03:20:00,76.5,73.0,29.81,SSE,151,2.0,2.0,89,0.00,,,0.00,Wunderground v.1.15,2013-09-28 08:20:00,
2013-09-28 03:25:00,76.5,73.0,29.81,ESE,114,3.0,3.0,89,0.00,,,0.00,Wunderground v.1.15,2013-09-28 08:25:00,
2013-09-28 03:35:00,76.7,73.2,29.80,SE,133,2.0,7.0,89,0.00,,,0.00,Wunderground v.1.15,2013-09-28 08:35:00,
2013-09-28 03:40:00,76.7,73.5,29.80,ESE,123,2.0,5.0,90,0.00,,,0.00,Wunderground v.1.15,2013-09-28 08:40:00,
2013-09-28 03:50:00,76.7,73.5,29.80,SE,141,2.0,2.0,90,0.00,,,0.00,Wunderground v.1.15,2013-09-28 08:50:00,
2013-09-28 03:55:00,76.7,73.5,29.80,SE,141,1.0,2.0,90,0.00,,,0.00,Wunderground v.1.15,2013-09-28 08:55:00,
2013-09-28 04:05:00,76.5,73.3,29.80,SSE,151,2.0,2.0,90,0.00,,,0.00,Wunderground v.1.15,2013-09-28 09:05:00,
2013-09-28 04:10:00,76.5,73.3,29.80,SSE,160,2.0,12.0,90,0.00,,,0.00,Wunderground v.1.15,2013-09-28 09:10:00,
2013-09-28 04:20:00,76.5,73.3,29.80,SSE,164,2.0,7.0,90,0.00,,,0.00,Wunderground v.1.15,2013-09-28 09:20:00,
2013-09-28 04:25:00,76.5,73.3,29.80,SSE,155,3.0,7.0,90,0.00,,,0.00,Wunderground v.1.15,2013-09-28 09:25:00,
2013-09-28 04:35:00,76.5,73.3,29.81,SSE,151,1.0,2.0,90,0.00,,,0.00,Wunderground v.1.15,2013-09-28 09:35:00,
2013-09-28 04:40:00,76.5,73.3,29.81,SSE,152,2.0,6.0,90,0.00,,,0.00,Wunderground v.1.15,2013-09-28 09:40:00,
2013-09-28 04:50:00,76.5,73.0,29.81,SSE,155,2.0,7.0,89,0.00,,,0.00,Wunderground v.1.15,2013-09-28 09:50:00,
2013-09-28 04:55:00,76.5,73.0,29.81,South,172,2.0,7.0,89,0.00,,,0.00,Wunderground v.1.15,2013-09-28 09:55:00,
2013-09-28 05:05:00,76.5,73.0,29.80,SSE,157,2.0,2.0,89,0.00,,,0.00,Wunderground v.1.15,2013-09-28 10:05:00,
2013-09-28 05:10:00,76.5,73.0,29.80,SSE,158,2.0,2.0,89,0.00,,,0.00,Wunderground v.1.15,2013-09-28 10:10:00,
2013-09-28 05:20:00,76.5,72.7,29.81,SE,143,2.0,6.0,88,0.00,,,0.00,Wunderground v.1.15,2013-09-28 10:20:00,
2013-09-28 05:25:00,76.5,73.0,29.81,SE,128,3.0,6.0,89,0.00,,,0.00,Wunderground v.1.15,2013-09-28 10:25:00,
2013-09-28 05:35:00,76.5,72.7,29.81,SSE,147,2.0,2.0,88,0.00,,,0.00,Wunderground v.1.15,2013-09-28 10:35:00,
2013-09-28 05:40:00,76.5,72.7,29.82,SSE,150,2.0,3.0,88,0.00,,,0.00,Wunderground v.1.15,2013-09-28 10:40:00,
2013-09-28 05:50:00,76.5,72.7,29.81,SSE,155,2.0,2.0,88,0.00,,,0.00,Wunderground v.1.15,2013-09-28 10:50:00,
2013-09-28 05:55:00,76.5,72.7,29.81,SSE,164,1.0,2.0,88,0.00,,,0.00,Wunderground v.1.15,2013-09-28 10:55:00,
2013-09-28 06:05:00,76.5,72.7,29.82,SE,141,2.0,10.0,88,0.00,,,0.00,Wunderground v.1.15,2013-09-28 11:05:00,
2013-09-28 06:10:00,76.5,72.7,29.81,SE,141,3.0,3.0,88,0.00,,,0.00,Wunderground v.1.15,2013-09-28 11:10:00,
2013-09-28 06:20:00,76.5,72.7,29.82,SSE,168,2.0,2.0,88,0.00,,,0.00,Wunderground v.1.15,2013-09-28 11:20:00,
2013-09-28 06:25:00,76.5,72.7,29.82,South,172,2.0,4.0,88,0.00,,,0.00,Wunderground v.1.15,2013-09-28 11:25:00,
2013-09-28 06:35:00,76.5,73.0,29.82,SSE,167,2.0,7.0,89,0.00,,,0.00,Wunderground v.1.15,2013-09-28 11:35:00,
2013-09-28 06:40:00,76.5,73.0,29.83,SSE,158,2.0,2.0,89,0.00,,,0.00,Wunderground v.1.15,2013-09-28 11:40:00,
2013-09-28 06:50:00,76.1,73.0,29.83,South,172,1.0,5.0,90,0.00,,,0.00,Wunderground v.1.15,2013-09-28 11:50:00,
2013-09-28 06:55:00,76.1,72.6,29.83,SSE,154,3.0,5.0,89,0.00,,,0.00,Wunderground v.1.15,2013-09-28 11:55:00,
2013-09-28 07:05:00,76.3,72.8,29.84,South,184,3.0,3.0,89,0.00,,,0.00,Wunderground v.1.15,2013-09-28 12:05:00,
2013-09-28 07:10:00,76.3,72.8,29.84,SE,140,3.0,3.0,89,0.00,,,0.00,Wunderground v.1.15,2013-09-28 12:10:00,
2013-09-28 07:20:00,76.3,72.8,29.84,SSE,164,2.0,2.0,89,0.00,,,0.00,Wunderground v.1.15,2013-09-28 12:20:00,
2013-09-28 07:25:00,76.3,72.8,29.84,SSE,160,1.0,5.0,89,0.00,,,0.00,Wunderground v.1.15,2013-09-28 12:25:00,
2013-09-28 07:35:00,76.3,72.8,29.84,SSE,147,3.0,8.0,89,0.00,,,0.00,Wunderground v.1.15,2013-09-28 12:35:00,
2013-09-28 07:40:00,76.3,72.8,29.84,SSE,150,2.0,2.0,89,0.00,,,0.00,Wunderground v.1.15,2013-09-28 12:40:00,
2013-09-28 07:50:00,76.3,72.8,29.84,SSE,160,1.0,1.0,89,0.00,,,0.00,Wunderground v.1.15,2013-09-28 12:50:00,
2013-09-28 07:55:00,76.3,72.8,29.84,SSE,160,1.0,1.0,89,0.00,,,0.00,Wunderground v.1.15,2013-09-28 12:55:00,
2013-09-28 08:05:00,76.5,73.0,29.84,South,171,2.0,7.0,89,0.00,,,0.00,Wunderground v.1.15,2013-09-28 13:05:00,
2013-09-28 08:10:00,76.5,73.0,29.85,South,171,3.0,3.0,89,0.00,,,0.00,Wunderground v.1.15,2013-09-28 13:10:00,
2013-09-28 08:20:00,76.5,72.7,29.85,SSW,203,3.0,3.0,88,0.00,,,0.00,Wunderground v.1.15,2013-09-28 13:20:00,
2013-09-28 08:25:00,76.7,72.9,29.85,SSE,160,3.0,3.0,88,0.00,,,0.00,Wunderground v.1.15,2013-09-28 13:25:00,
2013-09-28 08:35:00,76.8,73.0,29.86,SSE,158,2.0,3.0,88,0.00,,,0.00,Wunderground v.1.15,2013-09-28 13:35:00,
2013-09-28 08:40:00,76.8,73.0,29.86,South,169,1.0,5.0,88,0.00,,,0.00,Wunderground v.1.15,2013-09-28 13:40:00,
2013-09-28 08:50:00,77.0,73.2,29.86,SSE,152,2.0,2.0,88,0.00,,,0.00,Wunderground v.1.15,2013-09-28 13:50:00,
2013-09-28 08:55:00,77.2,73.4,29.86,SSE,168,1.0,2.0,88,0.00,,,0.00,Wunderground v.1.15,2013-09-28 13:55:00,
2013-09-28 09:05:00,77.4,73.2,29.86,South,174,1.0,1.0,87,0.00,,,0.00,Wunderground v.1.15,2013-09-28 14:05:00,
2013-09-28 09:10:00,77.6,73.4,29.86,South,174,1.0,1.0,87,0.00,,,0.00,Wunderground v.1.15,2013-09-28 14:10:00,
2013-09-28 09:20:00,77.7,73.2,29.87,SSE,165,2.0,2.0,86,0.00,,,0.00,Wunderground v.1.15,2013-09-28 14:20:00,
2013-09-28 09:25:00,77.7,73.5,29.87,SSE,155,2.0,2.0,87,0.00,,,0.00,Wunderground v.1.15,2013-09-28 14:25:00,
2013-09-28 09:35:00,77.7,73.5,29.87,SSE,154,0.0,1.0,87,0.00,,,0.00,Wunderground v.1.15,2013-09-28 14:35:00,
2013-09-28 09:40:00,77.7,73.5,29.87,SSE,154,1.0,5.0,87,0.00,,,0.00,Wunderground v.1.15,2013-09-28 14:40:00,
2013-09-28 09:50:00,78.1,73.6,29.87,SSE,152,1.0,1.0,86,0.00,,,0.00,Wunderground v.1.15,2013-09-28 14:50:00,
2013-09-28 09:55:00,78.3,73.8,29.87,South,169,3.0,3.0,86,0.00,,,0.00,Wunderground v.1.15,2013-09-28 14:55:00,
2013-09-28 10:05:00,78.6,73.4,29.88,SSE,157,3.0,10.0,84,0.00,,,0.00,Wunderground v.1.15,2013-09-28 15:05:00,
2013-09-28 10:10:00,79.0,73.4,29.88,SE,141,3.0,3.0,83,0.00,,,0.00,Wunderground v.1.15,2013-09-28 15:10:00,
2013-09-28 10:20:00,79.4,73.1,29.88,South,178,2.0,2.0,81,0.00,,,0.00,Wunderground v.1.15,2013-09-28 15:20:00,
2013-09-28 10:25:00,79.6,73.6,29.88,SSW,193,2.0,11.0,82,0.00,,,0.00,Wunderground v.1.15,2013-09-28 15:25:00,
2013-09-28 10:35:00,80.7,73.2,29.88,SSW,193,1.0,7.0,78,0.00,,,0.00,Wunderground v.1.15,2013-09-28 15:35:00,
2013-09-28 10:40:00,81.2,72.9,29.88,SW,217,2.0,6.0,76,0.00,,,0.00,Wunderground v.1.15,2013-09-28 15:40:00,
2013-09-28 10:50:00,83.0,71.3,29.88,South,181,3.0,7.0,68,0.00,,,0.00,Wunderground v.1.15,2013-09-28 15:50:00,
2013-09-28 10:55:00,84.0,71.4,29.88,SSE,155,4.0,7.0,66,0.00,,,0.00,Wunderground v.1.15,2013-09-28 15:55:00,
2013-09-28 11:05:00,84.5,70.0,29.88,SSW,198,4.0,19.0,62,0.00,,,0.00,Wunderground v.1.15,2013-09-28 16:05:00,
2013-09-28 11:10:00,84.7,72.1,29.88,SSW,193,4.0,4.0,66,0.00,,,0.00,Wunderground v.1.15,2013-09-28 16:10:00,
2013-09-28 11:20:00,84.0,71.0,29.89,South,175,4.0,4.0,65,0.00,,,0.00,Wunderground v.1.15,2013-09-28 16:20:00,
2013-09-28 11:25:00,83.6,71.5,29.88,SSW,203,3.0,6.0,67,0.00,,,0.00,Wunderground v.1.15,2013-09-28 16:25:00,
2013-09-28 11:35:00,85.1,70.6,29.88,South,185,4.0,12.0,62,0.00,,,0.00,Wunderground v.1.15,2013-09-28 16:35:00,
2013-09-28 11:40:00,86.1,70.6,29.88,SSE,168,4.0,4.0,60,0.00,,,0.00,Wunderground v.1.15,2013-09-28 16:40:00,
2013-09-28 11:50:00,87.6,71.0,29.88,SSW,205,3.0,3.0,58,0.00,,,0.00,Wunderground v.1.15,2013-09-28 16:50:00,
2013-09-28 11:55:00,87.6,71.5,29.87,South,189,4.0,4.0,59,0.00,,,0.00,Wunderground v.1.15,2013-09-28 16:55:00,
2013-09-28 12:05:00,87.2,71.6,29.87,South,169,5.0,5.0,60,0.00,,,0.00,Wunderground v.1.15,2013-09-28 17:05:00,
2013-09-28 12:10:00,87.0,70.9,29.87,SSE,154,4.0,8.0,59,0.00,,,0.00,Wunderground v.1.15,2013-09-28 17:10:00,
2013-09-28 12:20:00,87.8,71.7,29.87,SE,134,3.0,4.0,59,0.00,,,0.00,Wunderground v.1.15,2013-09-28 17:20:00,
2013-09-28 12:25:00,88.4,71.2,29.87,SSE,157,4.0,5.0,57,0.00,,,0.00,Wunderground v.1.15,2013-09-28 17:25:00,
2013-09-28 12:35:00,88.0,71.4,29.87,South,176,3.0,7.0,58,0.00,,,0.00,Wunderground v.1.15,2013-09-28 17:35:00,
2013-09-28 12:40:00,88.2,70.5,29.87,SSE,165,4.0,4.0,56,0.00,,,0.00,Wunderground v.1.15,2013-09-28 17:40:00,
2013-09-28 12:50:00,87.4,71.3,29.87,SSE,161,3.0,3.0,59,0.00,,,0.00,Wunderground v.1.15,2013-09-28 17:50:00,
2013-09-28 12:55:00,87.0,70.9,29.87,SW,216,2.0,11.0,59,0.00,,,0.00,Wunderground v.1.15,2013-09-28 17:55:00,
2013-09-28 13:05:00,86.1,70.6,29.87,SSE,152,5.0,5.0,60,0.00,,,0.00,Wunderground v.1.15,2013-09-28 18:05:00,
2013-09-28 13:10:00,86.7,71.2,29.86,SSE,150,4.0,4.0,60,0.00,,,0.00,Wunderground v.1.15,2013-09-28 18:10:00,
2013-09-28 13:20:00,87.8,70.1,29.86,SSW,196,4.0,6.0,56,0.00,,,0.00,Wunderground v.1.15,2013-09-28 18:20:00,
2013-09-28 13:25:00,88.2,70.5,29.86,SSW,192,4.0,6.0,56,0.00,,,0.00,Wunderground v.1.15,2013-09-28 18:25:00,
2013-09-28 13:35:00,89.3,71.0,29.85,South,175,6.0,11.0,55,0.00,,,0.00,Wunderground v.1.15,2013-09-28 18:35:00,
2013-09-28 13:40:00,89.7,69.7,29.84,SE,138,6.0,6.0,52,0.00,,,0.00,Wunderground v.1.15,2013-09-28 18:40:00,
2013-09-28 13:50:00,88.6,70.9,29.84,SSE,151,4.0,4.0,56,0.00,,,0.00,Wunderground v.1.15,2013-09-28 18:50:00,
2013-09-28 13:55:00,88.4,71.2,29.84,East,93,3.0,5.0,57,0.00,,,0.00,Wunderground v.1.15,2013-09-28 18:55:00,
2013-09-28 14:05:00,87.6,70.5,29.84,SSW,198,3.0,10.0,57,0.00,,,0.00,Wunderground v.1.15,2013-09-28 19:05:00,
2013-09-28 14:10:00,87.8,70.7,29.83,SSW,199,3.0,3.0,57,0.00,,,0.00,Wunderground v.1.15,2013-09-28 19:10:00,
2013-09-28 14:20:00,86.1,73.9,29.84,WSW,251,4.0,5.0,67,0.00,,,0.01,Wunderground v.1.15,2013-09-28 19:20:00,
2013-09-28 14:25:00,83.6,73.6,29.83,WSW,241,5.0,8.0,72,0.00,,,0.01,Wunderground v.1.15,2013-09-28 19:25:00,
2013-09-28 14:35:00,81.2,74.4,29.84,WSW,257,1.0,5.0,80,0.10,,,0.03,Wunderground v.1.15,2013-09-28 19:35:00,
2013-09-28 14:40:00,80.5,74.9,29.84,WSW,257,1.0,1.0,83,0.05,,,0.03,Wunderground v.1.15,2013-09-28 19:40:00,
2013-09-28 14:50:00,80.7,75.8,29.83,WSW,257,0.0,0.0,85,0.00,,,0.03,Wunderground v.1.15,2013-09-28 19:50:00,
2013-09-28 14:55:00,80.9,75.2,29.82,WSW,257,1.0,1.0,83,0.00,,,0.03,Wunderground v.1.15,2013-09-28 19:55:00,
2013-09-28 15:05:00,82.0,76.3,29.82,WSW,257,0.0,1.0,83,0.00,,,0.03,Wunderground v.1.15,2013-09-28 20:05:00,
2013-09-28 15:10:00,82.6,76.2,29.82,WSW,257,0.0,2.0,81,0.00,,,0.03,Wunderground v.1.15,2013-09-28 20:10:00,
2013-09-28 15:20:00,83.2,75.6,29.83,WSW,257,1.0,2.0,78,0.00,,,0.03,Wunderground v.1.15,2013-09-28 20:20:00,
2013-09-28 15:25:00,83.0,74.6,29.83,West,267,2.0,9.0,76,0.00,,,0.03,Wunderground v.1.15,2013-09-28 20:25:00,
2013-09-28 15:35:00,81.1,73.6,29.83,SW,230,5.0,5.0,78,0.00,,,0.04,Wunderground v.1.15,2013-09-28 20:35:00,
2013-09-28 15:40:00,79.8,73.4,29.83,WSW,244,4.0,4.0,81,0.53,,,0.10,Wunderground v.1.15,2013-09-28 20:40:00,
2013-09-28 15:50:00,77.9,73.7,29.84,WSW,244,2.0,2.0,87,0.07,,,0.11,Wunderground v.1.15,2013-09-28 20:50:00,
2013-09-28 15:55:00,77.6,74.1,29.84,WSW,244,1.0,2.0,89,0.04,,,0.11,Wunderground v.1.15,2013-09-28 20:55:00,
2013-09-28 16:05:00,76.8,74.0,29.84,WSW,243,1.0,3.0,91,0.04,,,0.12,Wunderground v.1.15,2013-09-28 21:05:00,
2013-09-28 16:10:00,76.8,74.3,29.84,WSW,243,0.0,0.0,92,0.04,,,0.12,Wunderground v.1.15,2013-09-28 21:10:00,
2013-09-28 16:20:00,77.0,74.8,29.84,WSW,243,0.0,0.0,93,0.00,,,0.12,Wunderground v.1.15,2013-09-28 21:20:00,
2013-09-28 16:25:00,77.2,76.3,29.84,WSW,243,0.0,0.0,97,0.00,,,0.12,Wunderground v.1.15,2013-09-28 21:25:00,
2013-09-28 16:35:00,76.7,74.2,29.84,SSE,154,3.0,3.0,92,0.00,,,0.12,Wunderground v.1.15,2013-09-28 21:35:00,
2013-09-28 16:40:00,76.3,73.8,29.83,SSW,193,4.0,4.0,92,0.00,,,0.12,Wunderground v.1.15,2013-09-28 21:40:00,
2013-09-28 16:50:00,76.1,73.6,29.82,SSW,200,2.0,2.0,92,0.00,,,0.12,Wunderground v.1.15,2013-09-28 21:50:00,
2013-09-28 16:55:00,76.3,74.1,29.82,SSW,200,1.0,2.0,93,0.00,,,0.12,Wunderground v.1.15,2013-09-28 21:55:00,
2013-09-28 17:05:00,76.5,74.0,29.82,SSW,200,0.0,0.0,92,0.00,,,0.12,Wunderground v.1.15,2013-09-28 22:05:00,
2013-09-28 17:10:00,76.7,74.2,29.82,SSW,200,0.0,0.0,92,0.00,,,0.12,Wunderground v.1.15,2013-09-28 22:10:00,
2013-09-28 17:20:00,76.8,74.0,29.82,SSW,200,0.0,0.0,91,0.00,,,0.12,Wunderground v.1.15,2013-09-28 22:20:00,
2013-09-28 17:25:00,77.0,74.5,29.81,SSW,200,0.0,0.0,92,0.00,,,0.12,Wunderground v.1.15,2013-09-28 22:25:00,
2013-09-28 17:35:00,77.4,74.9,29.82,SSW,200,0.0,0.0,92,0.00,,,0.12,Wunderground v.1.15,2013-09-28 22:35:00,
2013-09-28 17:40:00,77.6,75.1,29.82,SSW,200,0.0,0.0,92,0.00,,,0.12,Wunderground v.1.15,2013-09-28 22:40:00,
2013-09-28 17:50:00,77.7,75.5,29.82,SSW,200,0.0,0.0,93,0.00,,,0.12,Wunderground v.1.15,2013-09-28 22:50:00,
2013-09-28 17:55:00,77.7,75.5,29.82,SSW,200,0.0,0.0,93,0.00,,,0.12,Wunderground v.1.15,2013-09-28 22:55:00,
2013-09-28 18:05:00,77.7,75.8,29.83,SSW,200,0.0,0.0,94,0.00,,,0.12,Wunderground v.1.15,2013-09-28 23:05:00,
2013-09-28 18:10:00,77.7,75.8,29.83,SSW,200,0.0,0.0,94,0.00,,,0.12,Wunderground v.1.15,2013-09-28 23:10:00,
2013-09-28 18:20:00,77.6,75.7,29.84,SSW,200,0.0,0.0,94,0.00,,,0.12,Wunderground v.1.15,2013-09-28 23:20:00,
2013-09-28 18:25:00,77.4,75.5,29.85,South,175,1.0,5.0,94,0.00,,,0.12,Wunderground v.1.15,2013-09-28 23:25:00,
2013-09-28 18:35:00,77.4,75.2,29.85,South,174,1.0,2.0,93,0.00,,,0.12,Wunderground v.1.15,2013-09-28 23:35:00,
2013-09-28 18:40:00,77.4,75.2,29.85,South,174,0.0,0.0,93,0.00,,,0.12,Wunderground v.1.15,2013-09-28 23:40:00,
2013-09-28 18:50:00,77.4,75.9,29.86,South,174,0.0,1.0,95,0.00,,,0.12,Wunderground v.1.15,2013-09-28 23:50:00,
2013-09-28 18:55:00,77.2,75.3,29.86,South,174,0.0,1.0,94,0.00,,,0.12,Wunderground v.1.15,2013-09-28 23:55:00,
2013-09-28 19:05:00,76.7,72.5,29.85,ESE,117,1.0,1.0,87,0.00,,,0.13,Wunderground v.1.15,2013-09-29 00:05:00,
2013-09-28 19:10:00,76.7,72.5,29.86,ESE,117,0.0,0.0,87,0.00,,,0.13,Wunderground v.1.15,2013-09-29 00:10:00,
2013-09-28 19:20:00,76.5,72.7,29.86,ESE,117,0.0,0.0,88,0.00,,,0.13,Wunderground v.1.15,2013-09-29 00:20:00,
2013-09-28 19:25:00,76.3,72.8,29.86,ESE,117,0.0,0.0,89,0.00,,,0.13,Wunderground v.1.15,2013-09-29 00:25:00,
2013-09-28 19:35:00,76.0,72.9,29.86,ESE,117,0.0,0.0,90,0.00,,,0.13,Wunderground v.1.15,2013-09-29 00:35:00,
2013-09-28 19:40:00,75.8,72.7,29.87,ESE,117,0.0,0.0,90,0.00,,,0.13,Wunderground v.1.15,2013-09-29 00:40:00,
2013-09-28 19:50:00,75.3,72.5,29.87,ESE,117,0.0,0.0,91,0.00,,,0.13,Wunderground v.1.15,2013-09-29 00:50:00,
2013-09-28 19:55:00,75.1,72.3,29.88,ESE,117,0.0,0.0,91,0.00,,,0.13,Wunderground v.1.15,2013-09-29 00:55:00,
2013-09-28 20:05:00,74.9,72.4,29.88,ESE,117,0.0,0.0,92,0.00,,,0.13,Wunderground v.1.15,2013-09-29 01:05:00,
2013-09-28 20:10:00,74.9,72.4,29.88,ESE,117,0.0,0.0,92,0.00,,,0.13,Wunderground v.1.15,2013-09-29 01:10:00,
2013-09-28 20:20:00,74.7,72.5,29.88,ESE,117,0.0,0.0,93,0.00,,,0.13,Wunderground v.1.15,2013-09-29 01:20:00,
2013-09-28 20:25:00,74.7,72.5,29.88,ESE,117,0.0,0.0,93,0.00,,,0.13,Wunderground v.1.15,2013-09-29 01:25:00,
2013-09-28 20:35:00,74.6,72.8,29.88,ESE,117,0.0,0.0,94,0.00,,,0.13,Wunderground v.1.15,2013-09-29 01:35:00,
2013-09-28 20:40:00,74.4,72.9,29.88,ESE,117,0.0,0.0,95,0.00,,,0.13,Wunderground v.1.15,2013-09-29 01:40:00,
2013-09-28 20:50:00,74.2,73.9,29.89,ESE,117,0.0,0.0,99,0.00,,,0.13,Wunderground v.1.15,2013-09-29 01:50:00,
2013-09-28 20:55:00,74.2,74.2,29.89,ESE,117,0.0,0.0,100,0.00,,,0.13,Wunderground v.1.15,2013-09-29 01:55:00,
2013-09-28 21:05:00,74.0,74.0,29.90,ESE,117,0.0,0.0,100,0.00,,,0.13,Wunderground v.1.15,2013-09-29 02:05:00,
2013-09-28 21:10:00,74.0,74.0,29.90,ESE,117,0.0,0.0,100,0.00,,,0.13,Wunderground v.1.15,2013-09-29 02:10:00,
2013-09-28 21:20:00,74.2,74.2,29.91,ESE,117,1.0,2.0,100,0.00,,,0.13,Wunderground v.1.15,2013-09-29 02:20:00,
2013-09-28 21:25:00,74.4,74.4,29.91,ESE,117,1.0,2.0,100,0.00,,,0.13,Wunderground v.1.15,2013-09-29 02:25:00,
2013-09-28 21:35:00,74.4,74.4,29.91,ESE,117,0.0,1.0,100,0.00,,,0.13,Wunderground v.1.15,2013-09-29 02:35:00,
2013-09-28 21:40:00,74.4,74.4,29.91,ESE,117,0.0,0.0,100,0.00,,,0.13,Wunderground v.1.15,2013-09-29 02:40:00,
2013-09-28 21:50:00,74.4,74.4,29.92,ESE,117,0.0,0.0,100,0.00,,,0.13,Wunderground v.1.15,2013-09-29 02:50:00,
2013-09-28 21:55:00,74.4,74.4,29.92,ESE,117,0.0,0.0,100,0.00,,,0.13,Wunderground v.1.15,2013-09-29 02:55:00,
2013-09-28 22:05:00,74.4,74.4,29.91,ESE,117,0.0,0.0,100,0.00,,,0.13,Wunderground v.1.15,2013-09-29 03:05:00,
2013-09-28 22:10:00,74.4,74.4,29.91,ESE,117,1.0,2.0,100,0.00,,,0.13,Wunderground v.1.15,2013-09-29 03:10:00,
2013-09-28 22:20:00,74.4,74.4,29.91,ESE,117,1.0,1.0,100,0.00,,,0.13,Wunderground v.1.15,2013-09-29 03:20:00,
2013-09-28 22:25:00,74.4,74.4,29.91,ESE,117,1.0,4.0,100,0.00,,,0.13,Wunderground v.1.15,2013-09-29 03:25:00,
2013-09-28 22:35:00,74.6,74.6,29.91,ESE,116,2.0,2.0,100,0.00,,,0.13,Wunderground v.1.15,2013-09-29 03:35:00,
2013-09-28 22:40:00,74.7,74.7,29.91,ESE,116,1.0,1.0,100,0.00,,,0.13,Wunderground v.1.15,2013-09-29 03:40:00,
2013-09-28 22:50:00,74.7,74.7,29.91,ESE,116,0.0,0.0,100,0.00,,,0.13,Wunderground v.1.15,2013-09-29 03:50:00,
2013-09-28 23:00:00,74.7,74.7,29.91,North,3,1.0,1.0,100,0.00,,,0.13,Wunderground v.1.15,2013-09-29 04:00:00,
2013-09-28 23:05:00,74.6,74.6,29.91,North,0,2.0,2.0,100,0.00,,,0.13,Wunderground v.1.15,2013-09-29 04:05:00,
2013-09-28 23:10:00,74.2,74.2,29.91,North,0,1.0,3.0,100,0.00,,,0.13,Wunderground v.1.15,2013-09-29 04:10:00,
2013-09-28 23:15:00,73.9,73.9,29.91,NE,34,2.0,5.0,100,0.00,,,0.14,Wunderground v.1.15,2013-09-29 04:15:00,
2013-09-28 23:20:00,73.7,73.7,29.91,North,4,3.0,6.0,100,0.16,,,0.16,Wunderground v.1.15,2013-09-29 04:20:00,
2013-09-28 23:25:00,73.7,73.7,29.91,NNE,21,3.0,6.0,100,0.10,,,0.16,Wunderground v.1.15,2013-09-29 04:25:00,
2013-09-28 23:35:00,73.3,73.3,29.91,NNW,333,3.0,6.0,100,0.05,,,0.17,Wunderground v.1.15,2013-09-29 04:35:00,
2013-09-28 23:40:00,72.8,72.8,29.91,North,0,5.0,5.0,100,0.06,,,0.18,Wunderground v.1.15,2013-09-29 04:40:00,
2013-09-28 23:50:00,72.5,72.5,29.92,North,3,2.0,2.0,100,0.44,,,0.23,Wunderground v.1.15,2013-09-29 04:50:00,
2013-09-28 23:55:00,72.3,72.3,29.92,North,359,2.0,3.0,100,0.41,,,0.27,Wunderground v.1.15,2013-09-29 04:55:00,